Location: Kaseke
(18.0171°S, 31.0526°E)
Time: 12:29:12
(UTC+00:00)

ADEOS Rocket - Pass Details

Date: 14 July 2020
Orbit: 859 x 1306 km, 98.7° (Epoch: 07 August)

Event Time Altitude Azimuth Distance (km) Brightness Sun altitude
Rises 02:59:03 0° 158° (SSE) 3,458 6.0 -20.7°
Reaches altitude 10° 03:01:30 10° 151° (SSE) 2,532 5.3 -20.1°
Maximum altitude 03:06:50 46° 78° (ENE) 1,198 3.9 -18.9°
Drops below altitude 10° 03:12:29 10° 6° (N) 2,683 5.6 -17.6°
Sets 03:15:07 0° 0° (N) 3,684 6.3 -17.0°
